Total_Precipitation_Accumulation
1.09 1.16 1.24 1.29 1.37 1.52 1.66 1.71 1.79 1.82 1.85 1.97 2.09 2.23 2.25 2.23 2.23 2.18 2.09 2.03 1.97 1.88 1.86 1.93 1.92 1.82 1.85 1.84 1.87 1.97 2.08 2.24 2.27 1.79 1.49 1.49 1.63 1.68 1.71 1.64 1.59 1.58 1.56
0.96 1.00 1.07 1.14 1.20 1.30 1.39 1.48 1.58 1.62 1.66 1.73 1.76 1.83 1.96 2.01 2.07 2.08 2.00 1.91 1.86 1.78 1.72 1.79 1.82 1.80 1.83 1.84 1.90 1.94 1.95 2.00 2.10 1.95 1.64 1.52 1.50 1.47 1.43 1.43 1.42 1.35 1.28
0.89 0.94 0.98 1.00 1.04 1.09 1.13 1.23 1.28 1.33 1.43 1.51 1.54 1.57 1.62 1.69 1.78 1.85 1.87 1.85 1.77 1.70 1.71 1.73 1.76 1.83 1.88 1.86 1.90 1.95 1.90 1.82 1.79 1.78 1.59 1.39 1.36 1.35 1.41 1.36 1.34 1.34 1.20
0.86 0.87 0.92 0.90 0.91 0.96 0.97 1.02 1.06 1.09 1.11 1.15 1.22 1.29 1.39 1.46 1.54 1.60 1.65 1.72 1.75 1.73 1.73 1.73 1.75 1.84 1.93 1.97 1.99 1.96 1.90 1.84 1.75 1.71 1.62 1.46 1.37 1.32 1.40 1.43 1.40 1.37 1.31
0.84 0.81 0.81 0.84 0.84 0.85 0.86 0.86 0.87 0.90 0.90 0.91 1.00 1.08 1.17 1.26 1.37 1.46 1.51 1.56 1.60 1.63 1.68 1.73 1.76 1.88 1.96 1.94 1.86 1.76 1.71 1.74 1.69 1.64 1.57 1.45 1.36 1.35 1.36 1.27 1.24 1.27 1.32
0.78 0.78 0.75 0.78 0.81 0.83 0.80 0.75 0.79 0.85 0.90 0.90 0.92 0.97 1.06 1.13 1.38 1.47 1.45 1.44 1.48 1.53 1.55 1.56 1.61 1.71 1.65 1.67 1.65 1.58 1.62 1.73 1.73 1.60 1.43 1.27 1.10 1.05 1.07 1.17 1.25 1.38 1.46
0.83 0.80 0.76 0.76 0.78 0.81 0.84 0.84 0.84 0.86 0.92 0.96 0.94 0.96 1.00 1.12 1.34 1.40 1.53 1.47 1.44 1.43 1.41 1.41 1.38 1.33 1.37 1.23 1.32 1.35 1.34 1.41 1.43 1.39 1.36 1.11 0.96 0.92 1.09 1.27 1.29 1.27 1.16
0.99 0.96 0.90 0.91 0.95 0.99 1.01 1.05 1.04 1.03 1.06 1.10 1.07 1.08 1.12 1.22 1.39 1.40 1.45 1.37 1.28 1.22 1.15 1.14 1.16 1.13 1.14 1.21 1.24 1.26 1.13 1.06 1.04 0.99 0.98 0.93 0.94 1.01 1.20 1.39 1.45 1.46 1.29
1.18 1.26 1.23 1.20 1.23 1.27 1.30 1.33 1.32 1.31 1.31 1.31 1.30 1.26 1.24 1.27 1.32 1.24 1.25 1.18 1.11 1.02 0.95 0.94 0.99 1.00 1.12 1.32 1.32 1.28 1.16 1.06 1.06 1.11 1.11 1.11 1.20 1.29 1.39 1.58 1.75 1.91 1.77
1.33 1.42 1.39 1.36 1.36 1.36 1.35 1.32 1.29 1.26 1.27 1.24 1.24 1.18 1.11 1.05 1.06 1.04 1.05 1.01 0.98 0.88 0.83 0.85 0.97 1.03 1.22 1.40 1.38 1.33 1.27 1.10 1.06 1.12 1.14 1.13 1.10 1.15 1.28 1.27 1.41 1.79 1.80
1.32 1.31 1.26 1.20 1.14 1.11 1.09 1.04 1.01 0.98 0.98 0.96 0.95 0.92 0.84 0.80 0.85 0.91 0.97 0.99 0.99 0.97 0.91 0.86 0.88 1.07 1.22 1.39 1.45 1.35 1.29 1.22 1.18 1.21 1.24 1.22 1.19 1.20 1.17 1.11 1.15 1.46 1.78
1.03 1.00 0.96 0.92 0.89 0.87 0.89 0.88 0.83 0.82 0.83 0.79 0.77 0.78 0.76 0.75 0.79 0.84 0.94 1.00 1.04 1.07 0.96 0.83 0.83 1.04 1.23 1.33 1.35 1.36 1.44 1.45 1.34 1.34 1.36 1.33 1.25 1.18 1.11 1.08 1.10 1.16 1.28
0.77 0.72 0.72 0.72 0.74 0.74 0.76 0.80 0.79 0.77 0.79 0.77 0.75 0.77 0.79 0.77 0.78 0.84 0.90 0.96 1.03 1.02 0.93 0.96 1.04 1.14 1.21 1.22 1.24 1.31 1.35 1.32 1.33 1.34 1.27 1.15 1.04 1.01 1.06 1.15 1.21 1.23 1.25
0.71 0.68 0.65 0.66 0.71 0.75 0.79 0.81 0.83 0.84 0.86 0.84 0.83 0.82 0.79 0.79 0.79 0.83 0.91 0.95 1.01 1.04 1.02 1.03 1.10 1.17 1.20 1.18 1.22 1.22 1.21 1.23 1.28 1.24 1.12 1.04 1.04 1.11 1.19 1.22 1.32 1.38 1.51
0.72 0.70 0.70 0.67 0.68 0.76 0.81 0.87 0.93 0.94 1.00 1.11 1.07 1.00 1.01 0.99 0.89 1.00 1.13 1.15 1.16 1.19 1.25 1.26 1.20 1.16 1.18 1.16 1.13 1.13 1.17 1.25 1.30 1.20 1.20 1.21 1.21 1.21 1.22 1.20 1.32 1.43 1.52
0.76 0.74 0.74 0.75 0.74 0.75 0.80 0.89 0.99 1.04 1.06 1.06 1.07 1.12 1.11 1.13 1.15 1.20 1.20 1.22 1.25 1.35 1.47 1.37 1.15 1.04 1.01 1.01 1.04 1.09 1.14 1.18 1.20 1.25 1.31 1.34 1.35 1.33 1.32 1.29 1.37 1.50 1.49
0.84 0.85 0.85 0.83 0.82 0.84 0.84 0.86 0.96 1.06 1.09 1.06 1.03 1.06 1.12 1.18 1.23 1.24 1.25 1.29 1.33 1.39 1.37 1.13 0.97 0.93 0.94 0.96 1.01 1.06 1.10 1.10 1.20 1.34 1.39 1.38 1.42 1.45 1.45 1.44 1.42 1.50 1.49
0.75 0.83 0.87 0.87 0.87 0.88 0.89 0.87 0.87 0.92 0.99 1.02 1.02 1.04 1.09 1.14 1.19 1.24 1.30 1.39 1.43 1.32 1.15 0.98 0.92 0.91 0.96 1.02 1.08 1.12 1.15 1.17 1.27 1.35 1.36 1.37 1.44 1.56 1.58 1.50 1.44 1.48 1.52
0.73 0.79 0.86 0.90 0.90 0.91 0.91 0.93 0.92 0.90 0.90 0.91 0.94 1.04 1.14 1.20 1.22 1.26 1.28 1.28 1.17 1.06 0.98 0.95 0.95 0.99 1.03 1.09 1.15 1.19 1.25 1.28 1.28 1.34 1.36 1.35 1.43 1.60 1.58 1.40 1.43 1.50 1.61
0.75 0.85 0.91 0.93 0.93 0.92 0.93 0.97 0.99 0.96 0.95 0.93 0.94 1.05 1.22 1.32 1.29 1.23 1.18 1.11 1.06 1.01 0.97 0.99 1.01 1.06 1.13 1.19 1.23 1.27 1.33 1.32 1.32 1.36 1.34 1.34 1.41 1.55 1.57 1.46 1.49 1.60 1.55
0.74 0.80 0.90 0.90 0.90 0.92 0.96 0.99 1.00 1.00 0.98 0.95 0.98 1.09 1.35 1.44 1.28 1.14 1.11 1.08 1.08 1.09 1.11 1.13 1.12 1.14 1.20 1.25 1.29 1.29 1.31 1.27 1.25 1.32 1.35 1.37 1.44 1.54 1.47 1.49 1.51 1.55 1.63
0.75 0.79 0.83 0.87 0.90 0.96 1.03 1.05 1.05 1.02 0.96 0.94 0.96 1.06 1.25 1.22 1.13 1.10 1.07 1.05 1.06 1.11 1.18 1.26 1.24 1.17 1.23 1.34 1.41 1.43 1.34 1.22 1.18 1.27 1.36 1.38 1.43 1.48 1.51 1.58 1.60 1.68 1.73
0.77 0.80 0.81 0.83 0.88 0.96 1.00 0.97 0.98 0.98 0.95 0.93 0.93 0.97 1.03 1.05 1.01 1.02 1.04 1.05 1.07 1.11 1.15 1.21 1.22 1.13 1.10 1.23 1.35 1.51 1.55 1.33 1.23 1.36 1.58 1.59 1.57 1.60 1.68 1.73 1.65 1.63 1.55
0.76 0.78 0.80 0.82 0.85 0.88 0.89 0.88 0.90 0.92 0.94 0.94 0.92 0.91 0.92 0.95 0.96 0.98 1.02 1.07 1.10 1.12 1.13 1.16 1.17 1.11 1.09 1.17 1.24 1.29 1.37 1.48 1.70 1.84 1.97 2.17 2.04 1.84 1.80 1.75 1.59 1.51 1.52
0.72 0.75 0.78 0.81 0.85 0.87 0.87 0.85 0.85 0.87 0.90 0.91 0.91 0.90 0.89 0.90 0.92 0.93 0.97 1.02 1.05 1.07 1.05 1.06 1.10 1.11 1.11 1.14 1.17 1.20 1.30 1.51 1.87 2.33 2.53 2.44 2.11 1.82 1.79 1.74 1.60 1.55 1.57
0.68 0.72 0.76 0.78 0.81 0.82 0.83 0.84 0.83 0.84 0.88 0.89 0.91 0.92 0.93 0.94 0.93 0.94 0.96 0.98 1.01 0.99 0.97 0.97 0.99 1.03 1.08 1.12 1.10 1.16 1.31 1.45 1.61 1.86 2.35 2.51 2.22 1.87 1.82 1.91 1.74 1.68 1.67